Theta_e
331 330 330 328 326 323 322 321 320 319 318 316 316 313 306 303 302 301 301 301 300 300 300 299 299 299 299 299 298 298 298 299 299 298 298 298 298 297 297 297 296 295
330 329 328 326 324 322 321 320 319 318 316 314 314 310 302 301 301 300 299 299 299 299 299 298 298 298 298 298 298 298 298 298 298 298 297 297 297 297 296 296 295 295
329 328 326 324 323 321 320 319 317 317 315 313 312 307 300 299 300 298 298 298 298 298 298 298 298 298 298 298 298 298 298 298 298 298 297 297 296 296 296 295 295 295
327 326 324 322 321 319 319 318 316 316 314 311 309 304 298 299 299 298 298 297 297 298 297 297 297 297 298 298 298 298 298 298 298 297 296 296 296 296 295 295 295 295
324 323 321 320 319 318 317 316 316 315 312 309 305 301 298 298 298 297 297 297 297 297 297 297 297 297 297 297 297 297 297 297 297 297 296 296 296 295 295 295 295 295
322 320 319 318 318 317 316 315 314 313 311 306 302 299 298 297 297 297 297 297 297 297 297 297 297 297 297 297 297 297 297 297 297 297 297 297 296 295 295 295 294 294
320 318 318 318 317 316 316 314 313 312 308 303 299 299 297 297 297 296 296 296 296 296 296 296 296 296 296 297 296 296 297 296 296 297 297 296 296 295 295 294 294 294
317 317 316 316 316 315 314 313 312 310 304 299 298 298 297 296 296 296 296 296 296 296 296 296 296 296 296 296 296 296 297 296 296 296 296 296 296 295 295 294 294 294
315 315 315 314 314 314 313 311 310 307 300 298 298 297 296 296 296 296 296 296 296 296 296 296 296 296 296 296 296 296 296 297 297 296 296 296 296 295 294 294 294 294
314 314 314 313 312 312 311 310 308 303 299 298 298 297 296 296 296 296 296 296 296 296 296 296 296 296 295 296 296 296 296 296 297 296 296 297 296 295 295 294 294 294
313 313 312 311 311 310 309 308 305 300 298 298 297 297 296 296 296 296 296 295 295 296 296 296 295 295 295 295 296 296 296 296 296 295 296 297 296 296 295 295 295 295
312 311 311 310 310 309 308 305 302 299 299 299 298 297 296 295 296 296 295 295 296 295 296 295 295 295 295 295 295 296 296 296 296 296 296 296 296 296 296 295 295 295
311 311 310 310 310 309 306 302 300 300 299 299 297 297 296 296 296 296 295 295 295 295 295 295 295 295 295 295 295 296 296 296 296 296 296 296 296 296 296 296 296 296
312 311 310 310 309 307 304 302 301 300 299 298 297 296 296 296 295 295 295 295 295 295 295 295 295 294 294 295 295 296 296 296 296 296 296 296 296 296 296 296 296 296
313 312 311 310 309 306 304 302 301 299 298 297 297 296 295 295 295 295 295 295 295 295 295 295 295 294 294 295 295 295 296 296 296 296 296 296 296 296 297 296 296 296
312 311 310 310 309 306 304 303 301 299 298 296 296 296 295 295 295 295 295 295 295 295 295 295 294 294 294 294 295 295 296 296 296 296 296 296 295 296 296 296 297 296
311 311 310 310 308 306 304 302 300 298 297 296 296 295 295 295 295 295 295 295 295 295 295 295 294 294 294 294 294 295 295 296 296 296 296 296 296 296 296 296 296 296
311 310 310 309 307 304 302 301 299 298 297 296 296 295 295 295 295 294 295 295 295 295 295 295 294 294 294 294 294 294 295 295 295 295 296 296 296 296 295 295 296 296
310 310 309 307 305 303 301 301 299 298 297 296 295 295 294 294 294 294 294 294 294 295 294 294 294 293 293 293 293 293 293 294 294 294 295 295 296 296 295 295 295 295
310 309 307 305 304 302 301 301 299 298 297 296 295 295 294 294 294 294 294 294 294 294 294 294 293 293 293 292 292 292 292 292 292 293 293 294 295 295 295 295 295 294
309 307 305 305 304 302 301 301 300 299 297 296 296 295 294 294 294 294 294 294 294 294 293 293 293 293 292 292 292 292 292 292 292 292 292 293 294 295 295 295 294 293
308 306 305 304 303 301 301 300 300 299 297 297 297 295 294 294 294 294 294 294 293 293 293 293 293 292 292 292 292 292 292 292 292 292 292 292 293 294 294 294 293 293
308 306 305 304 302 301 300 300 300 299 297 297 297 296 293 293 294 293 293 293 293 293 292 292 292 292 292 292 292 292 292 292 292 292 291 291 292 293 294 293 293 293
307 306 305 303 301 300 299 299 299 298 297 296 297 296 294 293 293 293 293 293 292 292 292 292 292 292 292 292 292 292 292 292 292 291 291 291 291 293 293 293 293 293
306 305 303 301 300 299 298 298 298 297 296 296 296 296 294 293 293 293 292 293 292 292 292 292 292 292 292 292 292 292 292 292 292 292 292 291 292 292 293 293 293 294
303 302 301 300 299 298 298 297 296 296 296 296 296 296 295 293 292 292 293 293 293 293 293 293 293 293 293 293 293 292 292 292 292 292 292 292 292 292 292 293 293 293
Wind_Speed
19 19 18 17 15 13 12 10 10 11 11 11 8 5 6 7 7 6 4 3 2 1 1 0 0 1 1 2 3 3 4 5 5 5 6 7 8 8 9 9 9 9
19 19 18 16 14 12 11 10 11 11 11 9 6 6 7 7 7 5 4 2 1 1 0 0 0 1 1 2 2 3 4 4 5 5 6 6 7 7 8 8 8 8
19 19 17 16 14 12 12 12 11 11 10 7 6 8 8 7 6 5 3 2 1 1 1 1 1 1 1 2 2 3 3 4 4 5 6 6 7 7 8 8 8 7
19 18 16 14 12 11 12 12 11 11 9 6 8 9 8 6 5 4 3 2 2 1 1 1 1 1 2 2 3 3 3 4 4 5 5 6 7 7 7 8 8 8
18 16 14 13 11 11 11 11 12 11 9 7 9 9 7 6 5 4 3 3 2 2 1 1 1 1 2 2 3 4 4 3 4 4 5 6 6 6 6 6 7 7
17 15 13 12 12 11 11 12 12 11 8 9 10 9 8 6 5 4 3 3 2 2 1 1 1 0 1 2 3 4 4 3 3 4 5 6 6 6 5 5 6 7
15 14 13 13 13 12 13 13 12 10 10 11 11 10 8 6 5 4 4 3 3 3 2 2 1 0 1 2 3 4 4 4 3 4 5 6 7 6 6 5 6 8
14 14 15 15 14 14 14 14 11 10 12 12 11 9 8 7 5 5 5 4 4 3 3 2 1 1 2 3 3 4 4 4 4 4 5 6 7 8 7 7 7 9
14 15 15 15 15 14 14 12 11 13 13 12 10 8 7 7 6 6 5 5 4 4 3 3 2 2 3 3 3 3 4 4 5 4 4 5 7 8 8 8 9 11
15 16 16 15 14 14 13 12 13 14 13 11 9 8 7 7 7 6 6 5 5 4 3 3 3 3 3 2 2 3 3 4 5 4 4 5 7 9 9 8 10 12
16 16 15 14 13 13 13 14 15 14 13 11 8 7 7 7 7 7 6 6 5 5 4 4 4 3 3 2 2 2 3 4 5 5 5 6 7 9 10 10 11 14
17 16 14 14 14 14 14 15 16 15 13 10 8 7 7 7 7 7 6 6 6 5 4 4 3 3 3 3 3 3 3 4 5 5 5 6 8 9 10 10 12 15
17 16 15 14 13 14 15 16 16 14 12 10 8 8 8 8 7 7 7 6 6 5 4 4 3 3 3 3 3 2 3 4 5 5 6 7 8 9 9 10 12 14
17 16 15 13 13 15 17 17 16 14 11 10 8 8 8 8 7 6 6 6 5 5 4 3 3 3 3 3 3 2 2 3 4 5 6 7 7 7 8 10 11 12
18 17 16 14 14 16 18 17 15 13 12 10 9 8 8 7 7 6 6 5 5 5 4 3 3 3 3 3 3 2 2 2 3 4 5 6 6 6 7 8 10 11
18 18 17 16 16 18 18 17 16 14 12 11 9 8 8 7 6 6 6 5 5 4 4 3 3 3 3 3 2 2 1 2 3 4 5 6 6 5 6 7 8 11
20 19 18 18 19 19 19 18 16 15 13 11 10 9 8 7 6 6 6 5 5 4 4 4 3 3 3 2 2 1 1 2 4 5 5 6 6 5 7 7 7 10
22 21 19 20 21 20 19 18 16 15 13 11 10 9 9 8 7 7 6 6 5 5 4 4 3 3 3 2 1 0 1 3 4 6 6 7 6 7 8 7 8 11
23 22 21 21 22 21 19 18 17 15 13 12 11 10 9 9 8 7 6 6 6 5 4 4 4 4 3 3 2 1 1 3 5 6 7 7 7 7 8 8 9 12
24 23 22 23 23 21 20 19 17 15 14 12 12 11 10 9 8 8 7 7 7 6 5 5 5 4 4 3 2 0 1 3 5 6 7 7 7 8 8 8 10 11
25 24 24 25 24 22 21 19 18 16 15 13 12 11 10 9 8 8 8 8 8 7 6 5 4 4 3 2 1 0 1 3 4 6 6 7 7 7 8 8 9 8
26 26 26 25 25 23 22 21 19 17 16 14 13 12 11 10 9 9 8 8 8 7 6 4 4 3 3 2 1 1 2 3 4 5 6 7 7 7 7 7 7 6
27 27 26 26 25 24 23 22 20 18 16 15 14 13 12 11 10 10 9 9 8 8 6 5 4 3 2 1 0 1 2 3 4 5 6 7 7 7 7 6 5 5
27 27 27 26 26 25 23 22 21 19 17 15 14 14 13 11 11 11 11 10 9 8 8 6 5 4 3 2 1 3 4 4 5 5 6 6 6 6 6 4 3 4
26 26 26 26 26 25 23 22 21 20 18 16 15 14 14 13 12 12 12 11 11 10 9 8 7 5 4 3 2 3 4 3 3 3 4 4 4 3 3 3 3 4
25 25 26 26 25 24 23 22 21 20 19 17 16 14 15 14 14 13 13 13 12 11 10 8 7 6 5 3 3 4 4 4 3 2 2 1 1 2 2 2 3 4
Wind_Direction
222 228 234 239 240 242 243 246 255 266 275 279 277 252 204 179 167 160 157 148 138 128 100 54 9 347 340 338 339 347 359 1 358 354 350 354 5 12 12 9 9 10
227 232 237 238 239 240 239 244 253 262 273 276 253 213 192 178 165 159 156 147 138 150 164 258 273 286 312 328 337 345 358 358 354 353 348 351 2 10 13 15 15 13
230 235 238 240 242 240 235 237 245 256 269 261 215 195 189 179 169 164 162 159 168 199 214 226 250 275 303 316 326 338 351 353 351 353 348 349 3 11 15 18 17 13
233 236 237 239 239 233 230 232 239 252 261 238 195 185 184 178 173 175 175 178 192 210 215 218 250 271 288 301 318 333 343 349 353 355 351 358 12 17 18 16 13 14
234 235 233 233 229 225 228 230 239 252 249 216 190 183 182 179 178 182 184 188 190 196 198 184 218 264 291 307 323 329 333 343 356 0 359 8 18 20 18 13 12 19
229 231 228 227 226 225 227 232 243 249 231 206 194 187 184 179 178 183 186 185 178 180 180 168 175 276 318 325 327 324 322 331 352 10 9 12 19 23 27 26 25 26
228 226 219 218 220 222 228 235 242 233 211 201 196 190 183 177 179 183 181 175 173 177 176 173 184 290 314 321 321 317 318 324 343 13 16 14 27 38 48 50 40 32
225 217 211 212 213 218 228 236 233 214 201 200 197 190 179 175 183 185 179 176 175 183 188 194 218 253 279 301 312 315 321 324 336 8 20 28 43 53 62 61 44 32
214 208 208 211 213 219 227 229 218 203 199 200 197 190 181 180 183 182 179 179 183 195 206 214 231 244 262 288 308 318 326 325 335 9 30 42 51 54 59 55 38 28
209 209 211 213 213 216 218 215 208 201 199 201 197 191 188 186 183 181 182 185 192 204 217 227 234 240 257 283 309 319 323 323 338 14 43 49 48 46 47 42 28 23
209 208 206 204 203 206 207 206 206 205 204 204 200 195 192 189 188 188 187 190 196 205 216 228 235 243 263 284 302 308 315 329 345 11 39 49 46 41 38 33 25 21
201 198 196 196 199 203 204 205 206 208 210 207 199 198 196 194 195 195 192 193 198 205 213 224 234 244 261 280 291 300 317 336 350 6 27 41 42 37 31 26 23 18
197 195 194 198 206 206 203 204 206 209 213 209 202 200 199 196 198 199 196 195 198 205 212 217 229 242 257 269 278 301 322 336 350 2 17 30 35 31 23 20 20 13
202 202 198 202 211 208 202 203 206 208 210 210 207 204 199 197 199 199 198 198 200 203 209 215 224 240 253 262 273 294 313 331 349 0 9 19 23 16 12 14 12 5
208 207 204 208 211 206 203 204 207 209 209 208 208 205 200 198 200 199 197 198 198 198 200 208 219 233 242 253 266 277 296 331 348 357 3 11 14 359 353 3 2 355
208 206 206 210 210 207 206 208 210 211 210 206 205 203 199 199 203 202 196 192 190 190 192 200 212 220 228 243 258 269 298 333 340 345 352 2 6 349 340 351 351 345
205 205 205 208 208 207 208 210 211 212 210 207 205 203 200 200 202 200 194 187 180 177 183 190 196 200 209 228 234 249 305 321 327 328 333 343 347 339 339 343 339 336
205 206 206 206 204 204 206 208 210 212 212 210 208 205 202 200 199 196 189 179 172 171 176 176 177 180 184 194 190 179 305 306 312 312 314 323 323 325 333 334 328 331
206 207 207 203 201 202 206 208 209 212 213 211 206 204 203 199 194 190 183 175 167 162 163 162 162 165 163 154 146 132 301 299 300 300 305 310 309 313 323 326 327 330
208 208 204 201 200 202 206 208 210 210 209 207 205 204 203 199 191 185 179 172 162 153 155 161 157 156 150 138 130 132 319 308 304 304 304 302 303 307 315 323 328 327
207 205 201 199 200 202 205 208 209 209 206 204 202 201 199 195 189 184 177 167 155 147 148 153 151 149 148 141 143 302 323 316 311 313 310 303 300 303 310 322 325 320
205 201 199 200 201 203 205 209 210 210 208 204 199 197 195 192 185 179 170 159 151 143 137 139 146 148 149 155 199 289 307 308 313 318 316 309 299 296 305 315 314 317
204 201 200 201 204 205 206 210 212 211 209 206 203 199 194 190 182 170 159 153 147 139 132 134 141 139 134 136 322 327 327 323 321 316 312 306 294 290 299 304 305 326
203 203 203 203 206 208 209 211 212 212 211 209 208 205 197 188 180 167 156 151 147 139 134 132 129 123 113 85 18 345 338 330 322 314 306 298 286 281 288 290 300 327
204 205 205 205 208 210 211 212 212 212 212 210 208 207 200 189 178 168 159 153 149 144 136 129 123 116 105 80 39 359 351 347 338 328 314 297 280 268 270 270 285 314
206 206 206 207 209 211 212 212 211 211 211 209 204 200 198 190 176 166 162 159 155 148 138 129 120 109 96 74 46 25 20 30 31 16 350 298 249 233 248 263 287 319